TimeCDT,TemperatureF,Dew PointF,Humidity,Sea Level PressureIn,VisibilityMPH,Wind Direction,Wind SpeedMPH,Gust SpeedMPH,PrecipitationIn,Events,Conditions,WindDirDegrees,DateUTC
12:56 AM,70.0,66.9,90,29.80,-9999.0,SSE,4.6,-,N/A,,Unknown,160,2012-07-30 05:56:00
1:56 AM,68.0,66.9,96,29.81,-9999.0,East,3.5,-,N/A,,Unknown,80,2012-07-30 06:56:00
2:56 AM,72.0,62.1,71,29.83,-9999.0,WNW,10.4,-,N/A,,Unknown,290,2012-07-30 07:56:00
3:56 AM,71.1,61.0,70,29.83,-9999.0,NNW,8.1,-,N/A,,Unknown,340,2012-07-30 08:56:00
4:56 AM,64.9,61.0,87,29.85,-9999.0,NNW,5.8,-,N/A,,Unknown,340,2012-07-30 09:56:00
5:56 AM,64.9,61.0,87,29.86,-9999.0,NNW,6.9,-,N/A,,Unknown,340,2012-07-30 10:56:00
6:56 AM,66.0,61.0,84,29.87,-9999.0,NNW,8.1,-,N/A,,Unknown,330,2012-07-30 11:56:00
7:56 AM,70.0,63.0,78,29.88,-9999.0,North,9.2,-,N/A,,Unknown,350,2012-07-30 12:56:00
8:56 AM,72.0,64.0,76,29.90,-9999.0,North,10.4,-,N/A,,Unknown,350,2012-07-30 13:56:00
9:56 AM,75.0,64.9,71,29.90,-9999.0,North,10.4,-,N/A,,Unknown,360,2012-07-30 14:56:00
10:56 AM,77.0,64.9,66,29.91,-9999.0,North,6.9,-,N/A,,Unknown,360,2012-07-30 15:56:00
11:56 AM,78.1,64.9,64,29.92,-9999.0,North,8.1,-,N/A,,Unknown,10,2012-07-30 16:56:00
12:56 PM,80.1,64.9,60,29.93,-9999.0,North,9.2,-,N/A,,Unknown,350,2012-07-30 17:56:00
1:56 PM,81.0,63.0,54,29.93,-9999.0,North,11.5,-,N/A,,Unknown,10,2012-07-30 18:56:00
2:56 PM,82.0,62.1,51,29.90,-9999.0,NNE,12.7,-,N/A,,Unknown,20,2012-07-30 19:56:00
3:56 PM,82.0,63.0,52,29.90,-9999.0,North,13.8,-,N/A,,Unknown,10,2012-07-30 20:56:00
4:56 PM,82.9,63.0,51,29.92,-9999.0,North,10.4,-,N/A,,Unknown,10,2012-07-30 21:56:00
5:56 PM,82.9,63.0,51,29.91,-9999.0,NE,5.8,-,N/A,,Unknown,50,2012-07-30 22:56:00
6:56 PM,82.0,64.0,54,29.90,-9999.0,Calm,Calm,-,N/A,,Unknown,0,2012-07-30 23:56:00
7:56 PM,79.0,66.0,64,29.91,-9999.0,ESE,3.5,-,N/A,,Unknown,110,2012-07-31 00:56:00
8:56 PM,75.9,64.9,69,29.91,-9999.0,Calm,Calm,-,N/A,,Unknown,0,2012-07-31 01:56:00
9:56 PM,70.0,64.9,84,29.93,-9999.0,Calm,Calm,-,N/A,,Unknown,0,2012-07-31 02:56:00
10:56 PM,68.0,64.0,87,29.94,-9999.0,WSW,4.6,-,N/A,,Unknown,250,2012-07-31 03:56:00
11:56 PM,68.0,63.0,84,29.94,-9999.0,WSW,3.5,-,N/A,,Unknown,250,2012-07-31 04:56:00